Location: Central Falls
(41.8900°N, 71.3929°W)
Time: 04:08:39
(UTC+00:00)

Vanguard 2 Rocket - Pass Details

Date: 09 December 2023
Orbit: 555 x 3309 km, 32.9° (Epoch: 01 March)

Event Time Altitude Azimuth Distance (km) Brightness Sun altitude
Rises 19:53:08 0° 256° (WSW) 6,123 12.2 11.1°
Reaches altitude 10° 19:56:44 10° 254° (WSW) 5,397 12.1 10.6°
Maximum altitude 20:14:07 65° 178° (S) 3,490 10.2 8.3°
Drops below altitude 10° 20:33:33 10° 103° (ESE) 5,947 10.7 5.5°
Sets 20:37:45 0° 101° (E) 6,748 10.9 4.8°
